Station 45221 - North Lake Champlain Image indicating link to RSS feed of recent meteorological observations for station 45221


Conditions at 45221 as of
(1:10 pm EDT)
1710 GMT on 09/06/2026:
     

Click on the graph icon in the table below to see a time series plot of the last five days of that observation.

5-day plot - Wind Direction Wind Direction (WDIR): N ( 360 deg true )
5-day plot - Wind Speed Wind Speed (WSPD): 7.8 kts
5-day plot - Air Temperature Air Temperature (ATMP): 66.6 °F
5-day plot - Water Temperature Water Temperature (WTMP): 70.3 °F
5-day plot - Wind Speed at 10 Meters Wind Speed at 10 meters (WSPD10M): 9.7 kts
5-day plot - Wind Speed at 20 Meters Wind Speed at 20 meters (WSPD20M): 9.7 kts
Previous observations
TIME
(EDT)
5-day plot - Wind Direction
WDIR
 
5-day plot - Wind Speed
WSPD
kts
5-day plot - Wind Gust
GST
kts
5-day plot - Wave Height
WVHT
ft
5-day plot - Dominant Wave Period
DPD
sec
5-day plot - Average Wave Period
APD
sec
5-day plot - Mean Wave Direction
MWD
 
5-day plot - Atmospheric Pressure
PRES
in
5-day plot - Pressure Tendency
PTDY
in
5-day plot - Air Temperature
ATMP
°F
5-day plot - Water Temperature
WTMP
°F
5-day plot - Dew Point
DEWP
°F
5-day plot - Salinity
SAL
psu
5-day plot - Visibility
VIS
nmi
5-day plot - Tide (above MLLW)
TIDE
ft
2026-09-06 01:00 pmNNW 7.8------- 66.0 70.2----
2026-09-06 12:50 pm N 5.8------- 66.2 70.2----
2026-09-06 12:40 pm N 7.8------- 65.3 70.2----
2026-09-06 12:30 pm N 5.8------- 64.9 70.0----
2026-09-06 12:20 pm NW 7.8------- 64.0 70.0----
2026-09-06 12:10 pm N 9.7------- 64.0 69.8----
2026-09-06 12:00 pm N 9.7------- 63.5 69.8----
2026-09-06 11:50 am N 7.8------- 63.0 69.6----
2026-09-06 11:40 amNNW 7.8------- 62.8 69.6----
2026-09-06 11:30 am N 9.7------- 62.2 69.6----
2026-09-06 11:20 am N 9.7------- 62.2 69.6----
2026-09-06 11:10 amNNW 9.7------- 61.3 69.4----
2026-09-06 11:00 am N 9.7------- 61.2 69.4----
2026-09-06 10:50 amNNW 9.7------- 60.6 69.4----
2026-09-06 10:40 amNNW 11.7------- 59.9 69.4----
2026-09-06 10:30 am N 11.7------- 59.9 69.4----
2026-09-06 10:20 amNNW 9.7------- 59.9 69.6----
2026-09-06 10:10 amNNW 11.7------- 59.7 69.6----
2026-09-06 10:00 amNNW 11.7------- 59.4 69.6----
2026-09-06 09:50 am N 11.7------- 59.9 69.8----
2026-09-06 09:40 amNNE 11.7------- 60.1 69.8----
2026-09-06 09:30 am N 11.7------- 60.1 69.8----
2026-09-06 09:20 amNNE 13.6------- 59.4 69.8----
2026-09-06 09:10 amNNE 13.6------- 59.2 69.8----
2026-09-06 09:00 amNNE 13.6------- 58.6 70.0----
2026-09-06 08:50 amNNW 11.7------- 57.9 70.0----
2026-09-06 08:40 am N 11.7------- 57.9 70.0----
2026-09-06 08:30 amNNW 11.7------- 58.5 70.0----
2026-09-06 08:20 am N 9.7------- 58.5 70.0----
2026-09-06 08:10 am N 11.7------- 57.7 70.0----
2026-09-06 08:00 amNNW 11.7------- 57.2 70.0----
2026-09-06 07:50 am NW 11.7------- 56.7 70.0----
2026-09-06 07:40 amNNW 11.7------- 56.7 70.0----
2026-09-06 07:30 am N 11.7------- 57.0 70.0----
2026-09-06 07:20 amNNW 11.7------- 55.9 70.0----
2026-09-06 07:10 amNNW 13.6------- 55.6 70.2----
2026-09-06 07:00 amNNW 13.6------- 55.2 70.2----
2026-09-06 06:50 am NW 13.6------- 55.4 70.2----
2026-09-06 06:40 amNNW 9.7------- 55.6 70.2----
2026-09-06 06:30 am NW 13.6------- 55.6 70.2----
2026-09-06 06:20 am NW 11.7------- 55.8 70.2----
2026-09-06 06:10 am NW 11.7------- 55.6 70.2----
2026-09-06 06:00 amNNW 13.6------- 55.9 70.2----
2026-09-06 05:50 amNNW 11.7------- 55.9 70.2----
2026-09-06 05:40 amNNW 11.7------- 55.8 70.2----
2026-09-06 05:30 amNNW 11.7------- 55.9 70.2----
2026-09-06 05:20 amNNW 11.7------- 55.9 70.2----
2026-09-06 05:10 amNNW 11.7------- 55.9 70.2----
2026-09-06 05:00 amNNW 11.7------- 55.9 70.3----
2026-09-06 04:50 am NW 11.7------- 55.8 70.3----
2026-09-06 04:40 amNNW 11.7------- 55.9 70.3----
2026-09-06 04:30 amNNW 11.7------- 55.9 70.3----
2026-09-06 04:20 amNNW 9.7------- 55.9 70.3----
2026-09-06 04:10 amNNW 9.7------- 55.9 70.3----
2026-09-06 04:00 amNNW 9.7------- 55.9 70.3----
2026-09-06 03:50 am NW 11.7------- 55.9 70.3----
2026-09-06 03:40 amNNW 9.7------- 55.9 70.3----
2026-09-06 03:30 amNNW 11.7------- 55.9 70.3----
2026-09-06 03:20 amNNW 11.7------- 55.9 70.3----
2026-09-06 03:10 amNNW 11.7------- 56.5 70.3----
2026-09-06 03:00 amNNW 11.7------- 56.1 70.3----
2026-09-06 02:50 amNNW 11.7------- 56.1 70.5----
2026-09-06 02:40 amNNW 11.7------- 56.7 70.5----
2026-09-06 02:30 amNNW 13.6------- 56.7 70.3----
2026-09-06 02:20 amNNW 11.7------- 56.5 70.5----
2026-09-06 02:10 am N 11.7------- 56.8 70.5----
2026-09-06 02:00 amNNW 13.6------- 56.5 70.5----
2026-09-06 01:50 amNNW 11.7------- 55.9 70.5----
2026-09-06 01:40 amNNW 13.6------- 55.9 70.5----
2026-09-06 01:30 amNNW 13.6------- 55.9 70.5----
2026-09-06 01:20 amNNW 11.7------- 55.6 70.5----
2026-09-06 01:10 amNNW 13.6------- 57.0 70.5----
2026-09-06 01:00 amNNW 13.6------- 57.2 70.5----
2026-09-06 12:50 amNNW 11.7------- 57.0 70.5----
2026-09-06 12:40 am NW 13.6------- 57.6 70.5----
2026-09-06 12:30 amNNW 15.5------- 57.9 70.5----
2026-09-06 12:20 amNNW 13.6------- 59.0 70.5----
2026-09-06 12:10 am N 13.6------- 60.4 70.5----
2026-09-06 12:00 amNNW 11.7------- 60.8 70.7----
2026-09-05 11:50 pmNNE 7.8------- 61.2 70.7----
2026-09-05 11:40 pm N 9.7------- 61.3 70.7----
2026-09-05 11:30 pmNNE 9.7------- 61.3 70.7----
2026-09-05 11:20 pmNNE 9.7------- 61.7 70.7----
2026-09-05 11:10 pm N 9.7------- 62.2 70.7----
2026-09-05 11:00 pm N 13.6------- 62.4 70.7----
2026-09-05 10:50 pm NE 11.7------- 62.6 70.7----
2026-09-05 10:40 pm NE 11.7------- 62.8 70.7----
2026-09-05 10:30 pmENE 11.7------- 63.0 70.7----
2026-09-05 10:20 pmENE 13.6------- 63.1 70.7----
2026-09-05 10:10 pm NE 15.5------- 63.3 70.9----
2026-09-05 10:00 pm NE 17.5------- 63.9 70.9----
2026-09-05 09:50 pm NE 15.5------- 64.0 70.9----
2026-09-05 09:40 pmNNE 15.5------- 64.0 70.9----
2026-09-05 09:30 pmNNE 17.5------- 64.9 70.9----
2026-09-05 09:20 pm N 17.5------- 65.1 70.9----
2026-09-05 09:10 pm N 15.5------- 65.5 70.9----
2026-09-05 09:00 pmNNW 11.7------- 64.9 70.9----
2026-09-05 08:50 pmNNW 9.7------- 65.7 70.9----
2026-09-05 08:40 pm N 11.7------- 66.2 70.9----
2026-09-05 08:30 pm N 11.7------- 65.5 70.9----
2026-09-05 08:20 pmNNW 7.8------- 64.9 70.9----
2026-09-05 08:10 pm NW 9.7------- 64.9 70.9----
2026-09-05 08:00 pm NW 9.7------- 64.8 70.9----
2026-09-05 07:50 pm NW 7.8------- 64.8 70.9----
2026-09-05 07:40 pmWNW 7.8------- 64.9 70.9----
2026-09-05 07:30 pmNNW 9.7------- 65.3 70.9----
2026-09-05 07:20 pmNNW 9.7------- 65.7 70.9----
2026-09-05 07:10 pm NW 7.8------- 65.8 70.9----
2026-09-05 07:00 pm N 9.7------- 66.4 70.9----
2026-09-05 06:50 pmNNW 9.7------- 66.2 70.9----
2026-09-05 06:40 pm N 9.7------- 66.2 71.1----
2026-09-05 06:30 pm N 9.7------- 66.2 71.1----
2026-09-05 06:20 pm N 7.8------- 66.2 71.1----
2026-09-05 06:10 pmNNE 11.7------- 66.6 71.1----
2026-09-05 06:00 pmNNE 9.7------- 67.3 71.1----
2026-09-05 05:50 pm NE 11.7------- 68.5 71.1----
2026-09-05 05:40 pm NE 11.7------- 66.7 71.1----
2026-09-05 05:30 pmNNE 13.6------- 66.6 71.1----
2026-09-05 05:20 pmNNE 13.6------- 66.6 71.1----
2026-09-05 05:10 pmNNE 13.6------- 67.1 71.1----
2026-09-05 05:00 pmNNE 11.7------- 67.5 71.1----
2026-09-05 04:50 pm N 13.6------- 67.3 71.1----
2026-09-05 04:40 pmNNE 9.7------- 67.1 71.1----
2026-09-05 04:30 pmNNE 11.7------- 67.6 71.1----
2026-09-05 04:20 pm N 11.7------- 68.2 71.1----
2026-09-05 04:10 pmNNW 9.7------- 68.5 71.1----
2026-09-05 04:00 pm N 9.7------- 68.4 71.1----
2026-09-05 03:50 pm N 13.6------- 67.8 71.1----
2026-09-05 03:40 pm N 13.6------- 68.2 71.1----
2026-09-05 03:30 pm N 11.7------- 70.0 71.1----
2026-09-05 03:20 pm N 11.7------- 68.7 71.1----
2026-09-05 03:10 pm N 11.7------- 68.5 71.1----
2026-09-05 03:00 pm N 11.7------- 67.5 71.1----
2026-09-05 02:50 pm N 13.6------- 67.1 71.1----
2026-09-05 02:40 pm N 11.7------- 67.5 71.1----
2026-09-05 02:30 pmNNW 11.7------- 67.5 71.1----
2026-09-05 02:20 pmNNW 11.7------- 68.5 71.1----
2026-09-05 02:10 pmNNW 9.7------- 67.6 71.1----
2026-09-05 02:00 pm N 11.7------- 68.2 71.1----
2026-09-05 01:50 pm N 11.7------- 67.5 71.1----

Ocean Conditions at 45221 as of
(1:10 pm EDT)
1710 GMT on 09/06/2026:

These oceanographic data are displayed in rounded times.

     

Click on the graph icon in the table below to see a time series plot of the last five days of that observation.

Depth (DEPTH): 3.3 ft
5-day plot - Ocean Temperature Ocean Temperature (OTMP):70.34 °F
Previous observations
TIME
(EDT)
DEPTH
ft
5-day plot - Ocean Temperature
OTMP
°F
5-day plot - Conductivity
COND
mS/cm
5-day plot - Salinity
SAL
psu
5-day plot - Oxygen Saturation
O2%
%
5-day plot - Oxygen Concentration
O2PPM
ppm
5-day plot - Chlorophyll
CLCON
ug/l
5-day plot - Turbidity
TURB
FTU
5-day plot - pH
PH
 
5-day plot - Eh
EH
mV
2026-09-06 01:00 pm 3.370.16--------
2026-09-06 12:50 pm 3.370.16--------
2026-09-06 12:40 pm 3.370.16--------
2026-09-06 12:30 pm 3.369.98--------
2026-09-06 12:20 pm 3.369.80--------
2026-09-06 12:10 pm 3.369.80--------
2026-09-06 12:00 pm 3.369.80--------
2026-09-06 11:50 am 3.369.62--------
2026-09-06 11:40 am 3.369.62--------
2026-09-06 11:30 am 3.369.62--------
2026-09-06 11:20 am 3.369.62--------
2026-09-06 11:10 am 3.369.44--------
2026-09-06 11:00 am 3.369.44--------
2026-09-06 10:50 am 3.369.44--------
2026-09-06 10:40 am 3.369.44--------
2026-09-06 10:30 am 3.369.44--------
2026-09-06 10:20 am 3.369.62--------
2026-09-06 10:10 am 3.369.62--------
2026-09-06 10:00 am 3.369.62--------
2026-09-06 09:50 am 3.369.80--------
2026-09-06 09:40 am 3.369.80--------
2026-09-06 09:30 am 3.369.80--------
2026-09-06 09:20 am 3.369.80--------
2026-09-06 09:10 am 3.369.80--------
2026-09-06 09:00 am 3.369.80--------
2026-09-06 08:50 am 3.369.98--------
2026-09-06 08:40 am 3.369.98--------
2026-09-06 08:30 am 3.369.98--------
2026-09-06 08:20 am 3.369.98--------
2026-09-06 08:10 am 3.369.98--------
2026-09-06 08:00 am 3.369.98--------
2026-09-06 07:50 am 3.369.98--------
2026-09-06 07:40 am 3.369.98--------
2026-09-06 07:30 am 3.369.98--------
2026-09-06 07:20 am 3.369.98--------
2026-09-06 07:10 am 3.369.98--------
2026-09-06 07:00 am 3.369.98--------
2026-09-06 06:50 am 3.370.16--------
2026-09-06 06:40 am 3.370.16--------
2026-09-06 06:30 am 3.370.16--------
2026-09-06 06:20 am 3.370.16--------
2026-09-06 06:10 am 3.370.16--------
2026-09-06 06:00 am 3.370.16--------
2026-09-06 05:50 am 3.370.16--------
2026-09-06 05:40 am 3.370.16--------
2026-09-06 05:30 am 3.370.16--------
2026-09-06 05:20 am 3.370.16--------
2026-09-06 05:10 am 3.370.16--------
2026-09-06 05:00 am 3.370.16--------
2026-09-06 04:50 am 3.370.34--------
2026-09-06 04:40 am 3.370.34--------
2026-09-06 04:30 am 3.370.34--------
2026-09-06 04:20 am 3.370.34--------
2026-09-06 04:10 am 3.370.34--------
2026-09-06 04:00 am 3.370.34--------
2026-09-06 03:50 am 3.370.34--------
2026-09-06 03:40 am 3.370.34--------
2026-09-06 03:30 am 3.370.34--------
2026-09-06 03:20 am 3.370.34--------
2026-09-06 03:10 am 3.370.34--------
2026-09-06 03:00 am 3.370.34--------
2026-09-06 02:50 am 3.370.52--------
2026-09-06 02:40 am 3.370.52--------
2026-09-06 02:30 am 3.370.34--------
2026-09-06 02:20 am 3.370.52--------
2026-09-06 02:10 am 3.370.52--------
2026-09-06 02:00 am 3.370.52--------
2026-09-06 01:50 am 3.370.52--------
2026-09-06 01:40 am 3.370.52--------
2026-09-06 01:30 am 3.370.52--------
2026-09-06 01:20 am 3.370.52--------
2026-09-06 01:10 am 3.370.52--------
2026-09-06 01:00 am 3.370.52--------
2026-09-06 12:50 am 3.370.52--------
2026-09-06 12:40 am 3.370.52--------
2026-09-06 12:30 am 3.370.52--------
2026-09-06 12:20 am 3.370.52--------
2026-09-06 12:10 am 3.370.52--------
2026-09-06 12:00 am 3.370.70--------
2026-09-05 11:50 pm 3.370.70--------
2026-09-05 11:40 pm 3.370.70--------
2026-09-05 11:30 pm 3.370.70--------
2026-09-05 11:20 pm 3.370.70--------
2026-09-05 11:10 pm 3.370.70--------
2026-09-05 11:00 pm 3.370.70--------
2026-09-05 10:50 pm 3.370.70--------
2026-09-05 10:40 pm 3.370.70--------
2026-09-05 10:30 pm 3.370.70--------
2026-09-05 10:20 pm 3.370.70--------
2026-09-05 10:10 pm 3.370.88--------
2026-09-05 10:00 pm 3.370.88--------
2026-09-05 09:50 pm 3.370.88--------
2026-09-05 09:40 pm 3.370.88--------
2026-09-05 09:30 pm 3.370.88--------
2026-09-05 09:20 pm 3.370.88--------
2026-09-05 09:10 pm 3.370.88--------
2026-09-05 09:00 pm 3.370.88--------
2026-09-05 08:50 pm 3.370.88--------
2026-09-05 08:40 pm 3.370.88--------
2026-09-05 08:30 pm 3.370.88--------
2026-09-05 08:20 pm 3.370.88--------
2026-09-05 08:10 pm 3.370.88--------
2026-09-05 08:00 pm 3.370.88--------
2026-09-05 07:50 pm 3.370.88--------
2026-09-05 07:40 pm 3.370.88--------
2026-09-05 07:30 pm 3.370.88--------
2026-09-05 07:20 pm 3.370.88--------
2026-09-05 07:10 pm 3.370.88--------
2026-09-05 07:00 pm 3.370.88--------
2026-09-05 06:50 pm 3.370.88--------
2026-09-05 06:40 pm 3.370.88--------
2026-09-05 06:30 pm 3.371.06--------
2026-09-05 06:20 pm 3.370.88--------
2026-09-05 06:10 pm 3.370.88--------
2026-09-05 06:00 pm 3.370.88--------
2026-09-05 05:50 pm 3.371.06--------
2026-09-05 05:40 pm 3.370.88--------
2026-09-05 05:30 pm 3.371.06--------
2026-09-05 05:20 pm 3.371.06--------
2026-09-05 05:10 pm 3.371.06--------
2026-09-05 05:00 pm 3.371.06--------
2026-09-05 04:50 pm 3.371.06--------
2026-09-05 04:40 pm 3.371.06--------
2026-09-05 04:30 pm 3.371.06--------
2026-09-05 04:20 pm 3.371.06--------
2026-09-05 04:10 pm 3.371.06--------
2026-09-05 04:00 pm 3.371.06--------
2026-09-05 03:50 pm 3.371.06--------
2026-09-05 03:40 pm 3.371.06--------
2026-09-05 03:30 pm 3.371.06--------
2026-09-05 03:20 pm 3.371.06--------
2026-09-05 03:10 pm 3.371.06--------
2026-09-05 03:00 pm 3.371.06--------
2026-09-05 02:50 pm 3.371.06--------
2026-09-05 02:40 pm 3.371.06--------
2026-09-05 02:30 pm 3.371.06--------
2026-09-05 02:20 pm 3.371.06--------
2026-09-05 02:10 pm 3.371.06--------
2026-09-05 02:00 pm 3.371.06--------
2026-09-05 01:50 pm 3.371.06--------